Location: Contre
(49.7477°N, 2.0963°E)
Time: 20:47:07
(UTC+00:00)

Meteor 2-12 Rocket - Pass Details

Date: 06 August 2024
Orbit: 936 x 957 km, 82.5° (Epoch: 07 September)

Event Time Altitude Azimuth Distance (km) Brightness Sun altitude
Rises 23:44:12 0° 356° (N) 3,610 8.9 -23.8°
Reaches altitude 10° 23:47:06 10° 8° (N) 2,663 7.8 -23.9°
Maximum altitude 23:52:13 27° 65° (ENE) 1,713 6.0 -23.9°
Enters shadow 23:55:44 17° 112° (ESE) 2,214 6.1 -23.9°
